Location: Bushey
(51.6333°N, 0.3667°W)
Time: 18:11:40
(UTC+00:00)

Okean-O - Pass Details

Date: 03 March 2021
Orbit: 639 x 640 km, 98.2° (Epoch: 17 April)

Event Time Altitude Azimuth Distance (km) Brightness Sun altitude
Rises 18:23:04 0° 157° (SSE) 2,936 5.8 -6.6°
Reaches altitude 10° 18:25:16 10° 156° (SSE) 2,031 5.0 -7.0°
Maximum altitude 18:29:40 72° 72° (ENE) 679 2.6 -7.6°
Drops below altitude 10° 18:34:07 10° 349° (N) 2,047 5.4 -8.3°
Sets 18:36:20 0° 347° (NNW) 2,961 6.2 -8.7°
